Flag for Rwanda Weather past 2 weeks in Butare, Rwanda

73 °F

Scattered clouds.

Feels Like: 75 °F
Forecast: 55 / 75 °F
Wind: 6 mph from Southwest

Location: Kigali Airport

Current Time: Nov 30, 2015 at 5:49:18 PM

Latest Report: Nov 30, 2015 at 5:30 PM

Visibility: N/A

Pressure: 30.12 "Hg (24.61 "Hg at 1750m altitude)

Humidity: 74%

Dew point: 64 °F

Location of ButareLocation

Historic Weather in Butare — Graph


Butare temperature yesterday

Maximum temperature yesterday: 81 °F (at 1:00 PM)
Minimum temperature yesterday: 61 °F (at 3:30 AM)
Average temperature yesterday: 69 °F

Past Weeks' High & Low Weather Summary

High86 °F (Nov 25, 2:00 PM)100% (Nov 15, 5:00 PM)30.27 "Hg (Nov 15, 5:00 PM)
Low61 °F (Nov 16, 2:00 AM)46% (Nov 25, 2:00 PM)29.95 "Hg (Nov 21, 3:30 PM)
Average69 °F88%30.10 "Hg
* Reported Nov 15 5:00 PM — Nov 30 5:00 PM, Butare, Weather by CustomWeather, © 2015

Note: Actual official high and low records may vary slightly from our data, if they occured in-between our weather recording intervals... More about our weather records


Butare weather history for previous 24 hours

Time TempWeatherWind HumidityBarometerVisibility
5:00 PM
Mon, Nov 30
75 °FScattered clouds.6 mph69%30.12 "HgN/A
4:30 PM75 °FScattered clouds.6 mph74%30.12 "HgN/A
4:00 PM75 °FScattered clouds.6 mph74%30.12 "HgN/A
3:30 PM75 °FScattered clouds.6 mph74%30.12 "HgN/A
3:00 PM75 °FScattered clouds.6 mph74%30.12 "HgN/A
2:30 PM73 °FBroken clouds.7 mph78%30.15 "HgN/A
2:00 PM72 °FBroken clouds.7 mph83%30.15 "HgN/A
1:30 PM70 °FBroken clouds.7 mph94%30.18 "HgN/A
1:00 PM70 °FPartly sunny.No wind94%30.18 "HgN/A
12:30 PM72 °FPartly sunny.No wind88%30.21 "HgN/A
12:00 PM70 °FPartly sunny.No wind94%30.21 "HgN/A
11:30 AM70 °FPartly sunny.No wind94%30.24 "HgN/A
11:00 AM70 °FLight rain. Partly sunny.No wind94%30.24 "HgN/A
10:30 AM68 °FLight rain. Partly sunny.6 mph100%30.24 "HgN/A
10:00 AM66 °FLight rain. Partly sunny.8 mph100%30.27 "HgN/A
9:00 AM64 °FLight rain. Partly sunny.3 mph100%30.27 "HgN/A
8:30 AM63 °FLight rain. Partly sunny.3 mph100%30.27 "HgN/A
7:30 AM63 °FRain. Partly sunny.3 mph100%30.24 "Hg4 mi
7:00 AM63 °FRain. Fog.6 mph100%30.24 "Hg2 mi
6:30 AM64 °FRain. Fog.7 mph100%30.21 "Hg1 mi
5:00 AM63 °FPassing clouds.3 mph100%30.15 "HgN/A
4:30 AM63 °FPassing clouds.3 mph100%30.15 "HgN/A
4:00 AM63 °FPassing clouds.3 mph100%30.15 "HgN/A
3:30 AM63 °FPassing clouds.3 mph100%30.15 "HgN/A
2:30 AM63 °FPassing clouds.5 mph100%30.12 "HgN/A
2:00 AM63 °FPassing clouds.5 mph100%30.15 "HgN/A
1:00 AM63 °FPassing clouds.3 mph100%30.15 "HgN/A
12:30 AM64 °FPassing clouds.3 mph100%30.18 "Hg5 mi
12:00 AM64 °FPassing clouds.3 mph100%30.18 "Hg5 mi
11:30 PM
Sun, Nov 29
64 °FPassing clouds.No wind100%30.21 "HgN/A
11:00 PM64 °FPassing clouds.No wind100%30.21 "HgN/A
10:30 PM64 °FPassing clouds.No wind100%30.21 "HgN/A
10:00 PM66 °FPassing clouds.No wind100%30.18 "HgN/A
9:30 PM66 °FPassing clouds.No wind100%30.18 "HgN/A
9:00 PM66 °FPassing clouds.No wind100%30.18 "HgN/A
8:30 PM68 °FPassing clouds.3 mph94%30.18 "HgN/A
8:00 PM68 °FPassing clouds.3 mph100%30.15 "HgN/A
7:30 PM68 °FPartly cloudy.3 mph100%30.15 "HgN/A
6:30 PM68 °FPassing clouds.3 mph100%30.12 "HgN/A
6:00 PM68 °FPassing clouds.3 mph100%30.12 "HgN/A
5:30 PM72 °FPartly sunny.3 mph88%30.09 "HgN/A
5:00 PM72 °FPartly sunny.3 mph88%30.09 "HgN/A
Weather by CustomWeather, © 2015

See weather overviewHow to use our weather pages